Weather in Semisotka

Russia / Republic of Crimea     45°14′34″N   35°33′35″E
temp.,
°C
wind,
m/s
gust,
m/s
humid.,
%
clouds,
%
prec.,
mm/h
press.,
hPa
HPBL,
m
19 september, sun
sun1900:00+20s7117998 0.1 1010497
03:00+19s698536 0.1 1010345
06:00+19s5887100 0.3 1009274
09:00+22ssw576745 0.4 1009448
12:00+21wsw136789 0.1 1009661
15:00+21s127598 2.4 1009195
18:00+21nnw127318 1.7 100985
21:00+19wsw5107111 2.3 1010282
20 september, mon
mon2000:00+18wnw597156 0.0 1010270
03:00+17w51173100 0.0 1011334
06:00+17wnw58817 0.0 1012289
09:00+18nw44650 0.0 1013365
12:00+20nne22572 0.0 1013633
15:00+21ene245863 0.1 1012610
18:00+21nnw23635 0.1 1012314
21:00+18nne347599 0.1 1014173
21 september, tue
tue2100:00+19n456370 0.0 1014460
03:00+18nnw4666100 0.1 1014400
06:00+15n568299 4.9 1015632
09:00+15nnw5686100 6.4 1016540
12:00+16nnw566713 1.1 1016934
15:00+18nnw57535 1.1 10161033
18:00+17nnw475516 0.0 1016819
21:00+15nw911525 0.0 1018662
22 september, wed
wed2200:00+14nnw895810 0.0 1019709
03:00+12wnw810582 0.0 1019694
06:00+11wnw79658 0.0 1019573
09:00+12wnw67599 0.0 1019888
12:00+14nw565478 0.0 10191192
15:00+14nw555786 0.0 10181341
18:00+13nnw3450100 0.0 10181265
21:00+13wnw115299 0.0 1017553
23 september, thu
thu2300:00+13w2254100 0.0 1016500
03:00+12wnw2356100 0.0 1015353
06:00+12wnw2357100 0.0 1014326
09:00+14nnw3455100 0.0 1014953
12:00+15nne545277 0.0 10131419
15:00+15nne7753100 0.0 10111340
18:00+13n5763100 0.7 10121146
21:00+14n5853100 0.9 1012812